Location: Unspecified
(49.9820°N, 20.4363°E)
Time: 22:44:10
(UTC+02:00)

Vanguard 2 Rocket - All Passes

Search period start: 15 May 2026 00:00
Search period end: 25 May 2026 00:00
Orbit: 553 x 3286 km, 32.9° (Epoch: 13 May)

Date Brightness Start Highest point End Pass type
(mag) Time Alt. Az. Time Alt. Az. Time Alt. Az.
15 May - 09:05:56 10° SSE 09:11:09 13° SE 09:17:12 10° ESE daylight
15 May - 11:11:24 10° SSW 11:23:07 33° SSE 11:38:51 10° E daylight
15 May - 13:22:36 10° WSW 13:37:33 44° S 13:55:36 10° ESE daylight
15 May - 15:36:35 10° WSW 15:52:54 39° SSW 16:09:30 10° SE daylight
15 May - 17:54:07 10° W 18:06:59 22° SW 18:18:47 10° S daylight
16 May - 10:07:54 10° SSW 10:17:27 25° SE 10:30:19 10° E daylight
16 May - 12:17:33 10° SW 12:30:50 41° SSE 12:48:23 10° ESE daylight
16 May - 14:30:19 10° WSW 14:45:59 43° S 15:03:39 10° SE daylight
16 May - 16:45:55 10° W 17:00:48 29° SSW 17:15:14 10° SSE daylight
17 May - 09:05:41 10° SSE 09:12:20 17° SE 09:20:42 10° ESE daylight
17 May - 11:13:06 10° SW 11:24:34 36° SSE 11:40:35 10° ESE daylight
17 May - 13:24:40 10° WSW 13:39:04 44° S 13:57:04 10° ESE daylight
17 May - 15:38:50 10° W 15:54:15 35° SSW 16:10:28 10° SSE daylight
17 May - 17:57:34 10° WSW 18:08:02 17° SW 18:18:02 10° SSW daylight
18 May - 10:09:19 10° SSW 10:18:50 28° SSE 10:32:17 10° E daylight
18 May - 12:19:35 10° SW 12:32:24 42° S 12:49:53 10° ESE daylight
18 May - 14:32:32 10° WSW 14:47:27 39° SSW 15:04:47 10° SE daylight
18 May - 16:48:38 10° W 17:01:59 24° SW 17:15:22 10° S daylight
19 May - 09:06:29 10° S 09:13:40 20° SE 09:23:19 10° E daylight
19 May - 11:15:01 10° SW 11:26:08 38° SSE 11:42:10 10° ESE daylight
19 May - 13:26:52 10° WSW 13:40:39 42° S 13:58:20 10° SE daylight
19 May - 15:41:18 10° W 15:55:34 30° SSW 16:11:03 10° SSE daylight
19 May - 18:02:48 10° WSW 18:09:04 12° SW 18:15:16 10° SSW daylight
20 May - 08:06:07 10° SSE 08:09:01 11° SE 08:12:16 10° ESE daylight
20 May - 10:11:04 10° SSW 10:20:23 31° SSE 10:34:03 10° ESE daylight
20 May - 12:21:45 10° WSW 12:34:03 42° S 12:51:14 10° ESE daylight
20 May - 14:34:54 10° WSW 14:48:56 35° SSW 15:05:38 10° SE daylight
20 May - 16:51:58 10° WSW 17:03:09 19° SW 17:14:40 10° S daylight
21 May - 09:07:50 10° SSW 09:15:10 23° SE 09:25:31 10° ESE daylight
21 May - 11:17:10 10° SW 11:27:49 39° SSE 11:43:37 10° ESE daylight
21 May - 13:29:13 10° WSW 13:42:16 39° S 13:59:22 10° SE daylight
21 May - 15:44:05 10° WSW 15:56:54 25° SSW 16:11:05 10° SSE daylight
22 May - 08:05:58 10° SSE 08:10:27 14° SE 08:16:02 10° ESE daylight
22 May - 10:13:04 10° SW 10:22:04 33° SSE 10:35:39 10° ESE daylight
22 May - 12:24:05 10° WSW 12:35:46 40° S 12:52:24 10° ESE daylight
22 May - 14:37:30 10° WSW 14:50:26 31° SSW 15:06:05 10° SSE daylight
22 May - 16:56:36 10° WSW 17:04:21 14° SW 17:12:24 10° SSW daylight
23 May - 09:09:34 10° SSW 09:16:49 25° SSE 09:27:26 10° ESE daylight
23 May - 11:19:27 10° SW 11:29:37 38° S 11:44:57 10° ESE daylight
23 May - 13:31:44 10° WSW 13:43:55 34° SSW 14:00:06 10° SE daylight
23 May - 15:47:26 10° WSW 15:58:15 20° SW 16:10:19 10° S daylight
24 May - 08:07:00 10° S 08:12:04 17° SE 08:18:44 10° ESE daylight
24 May - 10:15:16 10° SW 10:23:52 34° SSE 10:37:09 10° ESE daylight
24 May - 12:26:33 10° WSW 12:37:34 36° S 12:53:21 10° SE daylight
24 May - 14:40:25 10° WSW 14:51:58 25° SSW 15:06:00 10° SSE daylight
